[[{"header":{"parameterUnit":"m.s-1","parameterCategory":1,"la1":30.2991,"la2":30.254,"lo1":-89.0895,"lo2":-89.0444,"dy":0.0017,"dx":0.0017,"nx":28,"ny":28,"refTime":"2025-12-24T09:00:00:Z","depth":0,"parameterNumber":2,"parameterNumberName":"U-component_of_WINDS"},"data":[0,0,0,0,0,0,0,0,0,0,0,0,0,0,0,0,0,0,0,0,0,0,0,0,0,0,0,0,0,0,0,0,0,0,0,0,0,0,0,0,0,0,0,0,0,0,0,0,0,0,0,0,0,0,0,0,0,0,1.3614,1.3614,0,1.367,1.367,1.3671,1.3658,1.3657,1.3656,1.3655,1.3714,1.3716,1.3719,0,0,0,0,0,0,0,0,0,0,0,0,0,1.3498,1.35,1.3614,1.3614,1.3615,1.367,1.367,1.3671,1.3658,1.3657,1.3656,1.3655,1.3713,1.3716,1.3719,0,0,0,0,0,0,0,0,0,0,0,0,0,1.355,1.35,1.3613,1.3615,1.3616,1.3669,1.367,1.3671,1.3659,1.3657,1.3655,1.3654,1.3712,1.3716,1.372,1.3775,0,0,1.3731,1.3733,0,0,0,0,0,0,0,0,1.3547,1.3555,1.3614,1.3615,1.3616,1.3655,1.3651,1.3706,1.3659,1.3643,1.3655,1.3653,1.3696,1.3701,1.3715,1.3778,1.3781,1.3732,1.3734,1.3736,1.3737,0,0,0,0,0,0,0,1.3544,1.3552,1.3636,1.3615,1.3616,1.3614,1.362,1.3661,1.3678,1.3644,1.3643,1.365,1.3696,1.3711,1.3716,1.3781,1.3732,1.3735,1.3737,1.3739,1.3894,1.3896,0,0,0,0,0,0,1.3539,1.3549,1.3634,1.3637,1.3577,1.3617,1.3624,1.3644,1.3677,1.368,1.3651,1.3649,1.3706,1.3712,1.3718,1.3786,1.3736,1.3739,1.3741,1.3892,1.3895,1.3896,0,0,0,0,0,0,1.3537,1.3547,1.3632,1.3593,1.3604,1.3621,1.3644,1.3646,1.3661,1.3682,1.3685,1.3664,1.3705,1.3713,1.3761,1.3788,1.3741,1.3745,1.389,1.3893,1.3895,1.3922,0,0,0,0,0,0,1.3533,1.3546,1.3567,1.3594,1.3606,1.3673,1.3646,1.3649,1.3668,1.3666,1.3695,1.3698,1.3704,1.3756,1.3765,1.3792,1.3748,1.3888,1.3891,1.3895,1.3919,1.3925,1.3931,0,0,0,0,0,1.3529,1.3572,1.3568,1.3578,1.3632,1.3675,1.3682,1.3687,1.367,1.3692,1.3705,1.3697,1.3784,1.3761,1.3771,1.38,1.3886,1.389,1.3894,1.3916,1.3924,1.3931,0,0,0,0,0,0,1.3548,1.3576,1.3571,1.3624,1.3647,1.3673,1.37,1.3695,1.3724,1.3721,1.3726,1.3733,1.3783,1.3796,1.377,1.3856,1.3833,1.3839,1.3845,1.3853,1.3859,1.3855,1.3751,0,0,0,0,0,1.3558,1.359,1.3613,1.3657,1.3669,1.3682,1.3701,1.3703,1.3728,1.3738,1.3755,1.3779,1.3812,1.3833,1.3864,1.3921,1.3927,1.3946,1.3952,1.3957,1.3962,1.3994,1.4003,1.391,1.391,1.391,0,0,1.358,1.3599,1.3619,1.3661,1.368,1.3713,1.3691,1.3727,1.3752,1.3743,1.379,1.3804,1.3831,1.3884,1.3908,1.3897,1.3989,1.3962,1.3966,1.3969,1.3999,1.4008,1.4015,1.3913,1.3912,1.3912,0,0,1.3636,1.3654,1.3693,1.3712,1.3739,1.3748,1.3758,1.3784,1.3793,1.384,1.3834,1.3864,1.392,1.394,1.3958,1.4023,1.4017,1.4033,1.4065,1.4095,1.4103,1.4109,1.4133,1.4141,1.4039,1.4039,1.4039,0,1.366,1.3709,1.3714,1.3751,1.377,1.3763,1.3804,1.3822,1.3859,1.3872,1.3859,1.393,1.3948,1.4006,1.4022,1.4036,1.4048,1.403,1.4101,1.4108,1.4114,1.4137,1.4145,1.4041,1.404,1.404,1.404,0,1.3737,1.3772,1.38,1.3836,1.3858,1.3897,1.3908,1.393,1.393,1.3941,1.3989,1.4011,1.4047,1.4061,1.4061,1.4119,1.4111,1.41,1.4076,1.4124,1.4146,1.4155,1.4043,1.4043,1.4042,1.4042,0,0,1.3806,1.3844,1.3855,1.3871,1.3902,1.3929,1.3967,1.4002,1.4021,1.4047,1.408,1.4128,1.4118,1.4138,1.4141,1.4168,1.4219,1.4153,1.4154,1.4165,1.4284,1.4293,1.4303,1.4215,1.4217,1.4218,1.4282,0,1.3866,1.3933,1.3939,1.4,1.4032,1.4027,1.4061,1.4083,1.4094,1.4124,1.4137,1.4171,1.4154,1.4166,1.4193,1.4207,1.4243,1.4203,1.4247,1.4248,1.424,1.4314,1.4323,1.4382,1.4291,1.4292,1.4293,0,1.3944,1.3972,1.4036,1.4063,1.4077,1.4107,1.4139,1.4168,1.4194,1.42,1.4223,1.4223,1.4263,1.4238,1.4294,1.4267,1.4285,1.4295,1.4298,1.4302,1.4273,1.4321,1.4401,1.441,1.4306,1.4305,1.4304,0,1.3988,1.4042,1.4088,1.4102,1.4134,1.4156,1.417,1.4195,1.4216,1.4244,1.4258,1.4291,1.431,1.4336,1.4345,1.4325,1.4401,1.4376,1.4408,1.4408,1.4424,1.4423,1.4509,1.4436,1.4435,1.4435,1.4435,0,1.4054,1.4094,1.4108,1.4136,1.4181,1.4187,1.4231,1.4245,1.4267,1.4298,1.4296,1.4325,1.4335,1.4366,1.4374,1.4419,1.4428,1.4434,1.4436,1.4435,1.4434,1.4447,1.4443,1.4438,1.4437,1.4437,1.4436,0,1.4111,1.4123,1.4172,1.4199,1.4206,1.4238,1.4261,1.4289,1.4299,1.4339,1.4348,1.4366,1.4402,1.4414,1.4458,1.4463,1.4517,1.4515,1.4508,1.4508,1.4539,1.4536,1.4636,1.465,1.4568,1.4569,1.4569,0,1.4153,1.4183,1.4213,1.4233,1.4249,1.4282,1.4303,1.4311,1.4333,1.4366,1.439,1.4426,1.4455,1.4514,1.4531,1.4565,1.4564,1.4597,1.4569,1.4567,1.4565,1.4563,1.4566,1.4602,1.4603,1.4604,1.4604,0,1.4225,1.4229,1.4259,1.4292,1.4317,1.4344,1.4369,1.4386,1.4398,1.4423,1.4461,1.4483,1.4529,1.4565,1.46,1.4616,1.4613,1.4613,1.4622,1.4621,1.4616,1.462,1.4522,1.4611,1.461,1.461,1.4609,1.4609,1.4275,1.4302,1.4328,1.4362,1.4382,1.4406,1.4433,1.4447,1.4478,1.4516,1.4519,1.4559,1.4586,1.4632,1.465,1.4682,1.4673,1.4686,1.4689,1.4692,1.4695,1.4611,1.4689,1.4689,1.4688,1.4688,1.4688,0,1.4347,1.4364,1.4395,1.4431,1.4458,1.4452,1.448,1.4503,1.4539,1.4564,1.4593,1.4636,1.4672,1.4692,1.4727,1.4749,1.4749,1.4758,1.4757,1.4761,1.4701,1.469,1.4758,1.4758,1.4758,1.4758,1.4758,1.4758,1.4388,1.4434,1.4441,1.4497,1.4513,1.4552,1.4569,1.4591,1.4611,1.466,1.4689,1.4702,1.4725,1.4762,1.4795,1.48,1.4813,1.4824,1.4828,1.4772,1.4765,1.4758,1.4747,1.4827,1.4827,1.4884,1.4885,1.4885]},{"header":{"parameterUnit":"m.s-1","parameterCategory":1,"la1":30.2991,"la2":30.254,"lo1":-89.0895,"lo2":-89.0444,"dy":0.0017,"dx":0.0017,"nx":28,"ny":28,"refTime":"2025-12-24T09:00:00:Z","depth":0,"parameterNumber":3,"parameterNumberName":"V-component_of_WINDS"},"data":[0,0,0,0,0,0,0,0,0,0,0,0,0,0,0,0,0,0,0,0,0,0,0,0,0,0,0,0,0,0,0,0,0,0,0,0,0,0,0,0,0,0,0,0,0,0,0,0,0,0,0,0,0,0,0,0,0,0,0.1743,0.1743,0,0.1706,0.1706,0.1705,0.1691,0.1691,0.1691,0.1691,0.165,0.1649,0.1648,0,0,0,0,0,0,0,0,0,0,0,0,0,0.1797,0.1796,0.1743,0.1743,0.1742,0.1706,0.1706,0.1705,0.1691,0.1691,0.1691,0.1691,0.1651,0.1649,0.1648,0,0,0,0,0,0,0,0,0,0,0,0,0,0.1768,0.1796,0.1743,0.1731,0.1729,0.1706,0.1706,0.1705,0.1691,0.1691,0.1691,0.1691,0.1651,0.1649,0.1648,0.1634,0,0,0.1642,0.1641,0,0,0,0,0,0,0,0,0.177,0.1766,0.1733,0.1731,0.173,0.1703,0.171,0.1681,0.1691,0.1705,0.1691,0.1691,0.1667,0.1664,0.1657,0.1632,0.163,0.1642,0.1641,0.164,0.164,0,0,0,0,0,0,0,0.1772,0.1768,0.1728,0.1732,0.173,0.1726,0.1722,0.1704,0.1686,0.1704,0.1703,0.1699,0.1667,0.1659,0.1656,0.1629,0.1642,0.164,0.1639,0.1639,0.1589,0.1589,0,0,0,0,0,0,0.1776,0.1769,0.173,0.1727,0.1751,0.1724,0.172,0.1712,0.1686,0.1682,0.1699,0.1698,0.1662,0.1658,0.1654,0.1636,0.164,0.1638,0.1637,0.1589,0.1589,0.1589,0,0,0,0,0,0,0.1778,0.1773,0.1731,0.1748,0.1742,0.1723,0.1714,0.1711,0.1703,0.1682,0.1678,0.1694,0.1662,0.1657,0.1639,0.1634,0.1638,0.1636,0.159,0.1589,0.1589,0.1598,0,0,0,0,0,0,0.1779,0.1773,0.1769,0.1748,0.1742,0.1717,0.1714,0.171,0.17,0.1699,0.1677,0.1673,0.1661,0.1641,0.1637,0.1632,0.1635,0.159,0.1589,0.1589,0.1598,0.1598,0.1598,0,0,0,0,0,0.1781,0.1773,0.1769,0.1764,0.1736,0.1717,0.1713,0.17,0.17,0.1695,0.1681,0.1674,0.1635,0.164,0.1635,0.1629,0.159,0.159,0.1589,0.1598,0.1598,0.1598,0,0,0,0,0,0,0.1793,0.177,0.1765,0.175,0.1736,0.1715,0.1708,0.1701,0.1686,0.1685,0.1669,0.1664,0.1647,0.1636,0.1641,0.1613,0.1612,0.161,0.1621,0.1621,0.1621,0.1624,0.1633,0,0,0,0,0,0.1794,0.1782,0.1762,0.175,0.1743,0.1727,0.1718,0.171,0.1694,0.1687,0.1672,0.1656,0.164,0.163,0.1614,0.1597,0.1591,0.159,0.159,0.159,0.1589,0.1577,0.1576,0.1587,0.1587,0.1587,0,0,0.1795,0.1781,0.1774,0.1752,0.174,0.1727,0.1722,0.1708,0.1697,0.1685,0.1667,0.1655,0.1636,0.1618,0.1609,0.1608,0.1584,0.1589,0.1589,0.1588,0.1576,0.1575,0.1575,0.1586,0.1586,0.1587,0,0,0.1791,0.178,0.1769,0.1757,0.1738,0.1727,0.1725,0.1704,0.1696,0.1678,0.1668,0.1654,0.1628,0.1614,0.1604,0.1593,0.1586,0.1588,0.1588,0.1577,0.1576,0.1576,0.1571,0.1569,0.1587,0.1587,0.1587,0,0.1795,0.1776,0.1763,0.175,0.174,0.1729,0.1716,0.1705,0.1682,0.1674,0.1674,0.1639,0.1625,0.1603,0.1601,0.1593,0.1588,0.1591,0.1578,0.1577,0.1576,0.1571,0.1569,0.1588,0.1587,0.1587,0.1587,0,0.1781,0.1768,0.176,0.174,0.1729,0.1716,0.17,0.169,0.1682,0.1671,0.1651,0.1634,0.1614,0.1609,0.1601,0.1585,0.1585,0.1581,0.158,0.1575,0.1571,0.1569,0.1588,0.1588,0.1588,0.1588,0,0,0.1784,0.1756,0.1754,0.1743,0.1722,0.1711,0.1697,0.1678,0.1669,0.1654,0.164,0.1617,0.1614,0.1602,0.1592,0.1582,0.1574,0.158,0.1579,0.1578,0.1554,0.1557,0.1555,0.1569,0.1568,0.1568,0.1555,0,0.1777,0.1752,0.174,0.1721,0.1707,0.1696,0.1683,0.1668,0.1656,0.1642,0.1629,0.1612,0.1609,0.1602,0.1592,0.1577,0.1569,0.1578,0.1555,0.1554,0.156,0.1553,0.1556,0.1544,0.1554,0.1553,0.1553,0,0.1765,0.175,0.173,0.1709,0.1703,0.1692,0.1673,0.166,0.1642,0.1634,0.162,0.1611,0.1594,0.1594,0.1569,0.1576,0.1565,0.1557,0.1556,0.1553,0.1553,0.1549,0.1541,0.1539,0.155,0.155,0.1551,0,0.1769,0.1743,0.1727,0.1719,0.1695,0.1687,0.1676,0.1658,0.1648,0.1631,0.1623,0.1604,0.1593,0.1578,0.1563,0.1565,0.1539,0.1538,0.1531,0.1531,0.1526,0.1527,0.1516,0.1521,0.1521,0.1521,0.1521,0,0.1762,0.1749,0.1728,0.1719,0.1704,0.1689,0.1674,0.1662,0.1646,0.1633,0.1621,0.1608,0.1589,0.1573,0.1561,0.1542,0.1537,0.1529,0.1526,0.153,0.1531,0.1523,0.1523,0.152,0.152,0.152,0.1521,0,0.1763,0.1749,0.173,0.1709,0.1703,0.1693,0.1674,0.1663,0.165,0.1633,0.1628,0.1608,0.1589,0.1572,0.1547,0.1538,0.1518,0.1515,0.1525,0.1523,0.1517,0.1517,0.15,0.1496,0.1504,0.1504,0.1504,0,0.1759,0.175,0.1727,0.1718,0.1707,0.1692,0.1681,0.1666,0.1654,0.1632,0.1623,0.1604,0.1587,0.1556,0.1539,0.1519,0.1514,0.1509,0.1511,0.1515,0.1513,0.1514,0.1512,0.1509,0.1509,0.1509,0.1509,0,0.1754,0.1747,0.1733,0.1715,0.1702,0.1687,0.1672,0.1664,0.1645,0.1633,0.1614,0.1601,0.1575,0.1555,0.1532,0.152,0.1511,0.1509,0.1506,0.151,0.1516,0.1511,0.1524,0.1509,0.1509,0.1509,0.1509,0.1509,0.1753,0.1743,0.1725,0.1709,0.1695,0.1681,0.1669,0.1656,0.164,0.1618,0.1609,0.1589,0.1569,0.1539,0.1526,0.1509,0.1507,0.1503,0.1502,0.1501,0.1502,0.1519,0.1505,0.1505,0.1505,0.1505,0.1505,0,0.1746,0.1734,0.1719,0.1698,0.1684,0.1678,0.166,0.1649,0.1632,0.1615,0.1599,0.1575,0.1556,0.1536,0.1515,0.1505,0.15,0.1499,0.15,0.1497,0.1505,0.1509,0.1504,0.1504,0.1504,0.1504,0.1504,0.1504,0.1741,0.1724,0.1715,0.1691,0.1678,0.166,0.165,0.1636,0.1622,0.1597,0.1581,0.1569,0.155,0.1527,0.1507,0.1502,0.1494,0.1495,0.1488,0.1496,0.1496,0.1497,0.1501,0.1493,0.1493,0.1481,0.1481,0.1481]}]]